Retour au catalogue

STARLINK-36105

ActifCommunicationsVLEO
NORAD 66850·PAYLOAD·🇺🇸 United States

Lancé Dec 2, 2025 depuis Cape Canaveral Space Force Station

Loading…

Prochains Passages (prochaines 24 heures)

TLE

FraisSource: CelesTrak SupGP

Époque: Sep 14, 2026, 21:19 UTC

1 66850C 25281C   26257.88868056 -.00003528  00000+0 -12776-3 0  2576
2 66850  43.0034 355.1328 0001501 273.1363 291.1571 15.27584069    14

Suivez STARLINK-36105 en temps réel avec AllMySat

Download on the App Store